Marianna, WV

5:12 PM EST on December 08, 2016 (GMT -0500)
Pineville

Weather History for KI16 - November, 2012

Change the Weather History Date:

Wednesday, November 28, 2012

  Actual Average (KBKW) Record (KBKW)
Temperature  
Mean Temperature 36 °F -  
Max Temperature 45 °F 50 °F 72 °F (1909)
Min Temperature 26 °F 32 °F 6 °F (1938)
Degree Days  
Heating Degree Days 30    
Moisture  
Dew Point 31 °F    
Average Humidity 85    
Maximum Humidity 99    
Minimum Humidity 52    
Precipitation  
Precipitation 0.00 in - - ()
Sea Level Pressure  
Sea Level Pressure 30.38 in    
Wind  
Wind Speed - (North)    
Max Wind Speed -    
Max Gust Speed -    
Visibility 10 miles    
Events      
Averages and records for this station are not official NWS values.
T = Trace of Precipitation, MM = Missing Value Source: NWS Daily Summary

Daily Weather History Graph

Daily Weather History Graph

Search for Another Location

Airport or City:

Trip Planner

Search our weather history database for the weather conditions in past years. The results will help you decide how hot, cold, wet, or windy it might be!

Date:

Astronomy

Nov. 28, 2012 Rise Set
Actual Time 7:19 AM EST 5:08 PM EST
Civil Twilight 6:51 AM EST 5:37 PM EST
Nautical Twilight 6:18 AM EST 6:09 PM EST
Astronomical Twilight 5:47 AM EST 6:41 PM EST
Moon 5:22 PM EST (11/28) 7:16 AM EST (11/28)
Length of Visible Light 10h 46m
Length of Day
9h 48m
Full, 100% of the Moon is Illuminated
Nov 28
Full
Dec 6
Last Quarter
Dec 13
New
Dec 20
First Quarter
Dec 28
Full

Hourly Weather History & Observations

Time (EST) Temp. Dew Point Humidity Pressure Visibility Wind Dir Wind Speed Gust Speed Precip Events Conditions
12:15 AM 37.4 °F 36.5 °F 97% 30.31 in 10.0 mi North - - N/A   Overcast
12:35 AM 37.4 °F 36.5 °F 97% 30.30 in 10.0 mi North - - N/A   Overcast
12:55 AM 37.4 °F 36.5 °F 97% 30.30 in 7.0 mi North - - N/A   Overcast
1:15 AM 37.4 °F 36.5 °F 97% 30.30 in 7.0 mi North - - N/A   Overcast
1:35 AM 37.2 °F 36.5 °F 97% 30.30 in 7.0 mi North - - N/A   Overcast
1:55 AM 37.0 °F 36.1 °F 97% 30.30 in 7.0 mi North - - N/A   Overcast
2:15 AM 37.0 °F 36.1 °F 97% 30.29 in 5.0 mi North - - N/A   Overcast
2:55 AM 36.9 °F 36.5 °F 99% 30.31 in 7.0 mi North - - N/A   Overcast
3:15 AM 37.0 °F 36.5 °F 98% 30.31 in 7.0 mi North - - N/A   Overcast
3:35 AM 36.7 °F 36.1 °F 98% 30.31 in 7.0 mi North - - N/A   Overcast
3:55 AM 36.5 °F 36.1 °F 99% 30.32 in 5.0 mi North - - N/A   Overcast
4:15 AM 36.7 °F 36.1 °F 98% 30.32 in 7.0 mi North - - N/A   Overcast
4:35 AM 36.5 °F 35.6 °F 97% 30.32 in 7.0 mi North - - N/A   Overcast
4:55 AM 36.5 °F 34.3 °F 92% 30.33 in 10.0 mi North - - N/A   Overcast
5:15 AM 36.1 °F 34.2 °F 93% 30.33 in 10.0 mi North - - N/A   Overcast
5:35 AM 36.3 °F 34.3 °F 93% 30.34 in 10.0 mi North - - N/A   Overcast
5:55 AM 36.5 °F 34.2 °F 91% 30.35 in 10.0 mi North - - N/A   Overcast
6:15 AM 36.3 °F 32.9 °F 87% 30.35 in 10.0 mi North - - N/A   Overcast
6:55 AM 35.1 °F 32.7 °F 91% 30.36 in 10.0 mi North - - N/A   Overcast
7:15 AM 35.1 °F 32.5 °F 91% 30.37 in 10.0 mi North - - N/A   Overcast
7:35 AM 34.9 °F 32.0 °F 89% 30.38 in 10.0 mi North - - N/A   Mostly Cloudy
7:55 AM 34.9 °F 30.9 °F 85% 30.39 in 10.0 mi North - - N/A   Mostly Cloudy
8:15 AM 36.0 °F 32.0 °F 86% 30.39 in 10.0 mi North - - N/A   Overcast
8:35 AM 36.0 °F 31.6 °F 84% 30.40 in 10.0 mi North - - N/A   Overcast
8:55 AM 36.5 °F 31.8 °F 83% 30.41 in 10.0 mi North - - N/A   Overcast
9:15 AM 36.5 °F 31.1 °F 81% 30.42 in 10.0 mi North - - N/A   Overcast
9:35 AM 36.5 °F 31.3 °F 81% 30.42 in 10.0 mi North - - N/A   Overcast
9:55 AM 36.9 °F 30.4 °F 77% 30.42 in 10.0 mi North - - N/A   Overcast
10:15 AM 37.6 °F 30.2 °F 75% 30.43 in 10.0 mi North - - N/A   Overcast
10:35 AM 37.9 °F 30.0 °F 73% 30.43 in 10.0 mi North - - N/A   Mostly Cloudy
10:55 AM 38.5 °F 30.4 °F 73% 30.43 in 10.0 mi North - - N/A   Overcast
11:15 AM 39.2 °F 30.2 °F 70% 30.43 in 10.0 mi North - - N/A   Mostly Cloudy
11:35 AM 38.5 °F 29.1 °F 69% 30.43 in 10.0 mi North - - N/A   Scattered Clouds
11:55 AM 39.6 °F 29.7 °F 68% 30.42 in 10.0 mi North - - N/A   Clear
12:15 PM 39.6 °F 28.2 °F 64% 30.42 in 10.0 mi North - - N/A   Clear
12:35 PM 40.6 °F 28.9 °F 63% 30.41 in 10.0 mi North - - N/A   Clear
12:55 PM 42.3 °F 28.9 °F 59% 30.40 in 10.0 mi North - - N/A   Clear
1:15 PM 43.0 °F 28.8 °F 57% 30.39 in 10.0 mi North - - N/A   Clear
1:55 PM 43.9 °F 28.9 °F 56% 30.37 in 10.0 mi North - - N/A   Clear
2:15 PM 43.9 °F 28.4 °F 55% 30.37 in 10.0 mi North - - N/A   Clear
2:35 PM 44.6 °F 28.4 °F 53% 30.36 in 10.0 mi North - - N/A   Clear
2:55 PM 45.0 °F 28.9 °F 53% 30.36 in 10.0 mi North - - N/A   Clear
3:15 PM 44.6 °F 27.7 °F 52% 30.36 in 10.0 mi North - - N/A   Clear
3:35 PM 42.4 °F 28.8 °F 58% 30.36 in 10.0 mi North - - N/A   Clear
3:55 PM 42.1 °F 28.2 °F 58% 30.37 in 10.0 mi North - - N/A   Clear
4:15 PM 40.6 °F 28.4 °F 62% 30.37 in 10.0 mi North - - N/A   Clear
4:35 PM 38.5 °F 29.8 °F 71% 30.37 in 10.0 mi North - - N/A   Clear
4:55 PM 35.8 °F 30.4 °F 81% 30.38 in 10.0 mi North - - N/A   Clear
5:15 PM 34.3 °F 30.6 °F 86% 30.38 in 10.0 mi North - - N/A   Clear
5:35 PM 33.1 °F 30.7 °F 91% 30.38 in 10.0 mi North - - N/A   Clear
5:55 PM 32.2 °F 30.4 °F 93% 30.39 in 10.0 mi North - - N/A   Clear
6:15 PM 32.0 °F 30.0 °F 92% 30.40 in 10.0 mi North - - N/A   Clear
6:35 PM 31.1 °F 29.5 °F 94% 30.40 in 10.0 mi North - - N/A   Clear
6:55 PM 30.6 °F 29.1 °F 94% 30.41 in 10.0 mi North - - N/A   Clear
7:35 PM 29.8 °F 28.8 °F 96% 30.42 in 10.0 mi North - - N/A   Clear
7:55 PM 29.3 °F 28.6 °F 97% 30.42 in 10.0 mi North - - N/A   Clear
8:15 PM 28.9 °F 28.2 °F 97% 30.43 in 10.0 mi North - - N/A   Clear
8:35 PM 28.9 °F 28.2 °F 97% 30.43 in 10.0 mi North - - N/A   Clear
8:55 PM 28.2 °F 27.7 °F 98% 30.43 in 10.0 mi North - - N/A   Clear
9:15 PM 28.2 °F 27.5 °F 97% 30.43 in 10.0 mi North - - N/A   Clear
9:35 PM 27.5 °F 27.1 °F 99% 30.44 in 10.0 mi North - - N/A   Clear
9:55 PM 27.9 °F 27.5 °F 99% 30.44 in 10.0 mi North - - N/A   Clear
10:15 PM 27.5 °F 27.1 °F 99% 30.44 in 10.0 mi North - - N/A   Clear
10:35 PM 26.6 °F 26.1 °F 98% 30.44 in 10.0 mi North - - N/A   Clear
10:55 PM 27.0 °F 26.8 °F 99% 30.44 in 10.0 mi North - - N/A   Clear
11:15 PM 26.6 °F 26.4 °F 99% 30.44 in 10.0 mi North - - N/A   Clear
11:35 PM 26.2 °F 25.7 °F 98% 30.44 in 10.0 mi North - - N/A   Clear
11:55 PM 26.4 °F 26.2 °F 99% 30.43 in 10.0 mi North - - N/A   Clear